FW8707 Weather Reports


Display with metric or nautical units.
time (UTC)temp
F
wind
direction
speed
MPH
gust
MPH
rain 1hr
in
rain 24hr
in
rain mn
in
humidity
%
barometer
mb
20260906091014 67 279 0.0 2.0 0.00 0.00 0.00 59 1019.3
20260906090519 67 279 0.0 2.0 0.00 0.00 0.00 58 1019.3
20260906090032 67 279 0.0 2.0 0.00 0.00 0.00 59 1019.4
20260906085505 68 282 0.0 1.0 0.00 0.00 0.00 60 1019.4
20260906085004 68 281 0.0 5.0 0.00 0.00 0.00 59 1019.4
20260906084507 68 282 0.0 5.0 0.00 0.00 0.00 60 1019.2
20260906084007 68 282 0.0 4.0 0.00 0.00 0.00 59 1019.3
20260906083513 68 283 1.0 5.0 0.00 0.00 0.00 59 1019.3
20260906083014 68 283 0.0 5.0 0.00 0.00 0.00 59 1019.3
20260906082510 68 282 1.0 4.0 0.00 0.00 0.00 58 1019.4
20260906082011 68 282 0.0 4.0 0.00 0.00 0.00 57 1019.4
20260906081520 69 283 0.0 2.0 0.00 0.00 0.00 56 1019.5
20260906081014 69 283 0.0 7.0 0.00 0.00 0.00 56 1019.5
20260906080516 69 283 0.0 7.0 0.00 0.00 0.00 56 1019.5
20260906080025 69 283 1.0 7.0 0.00 0.00 0.00 54 1019.5
20260906075517 69 283 0.0 7.0 0.00 0.00 0.00 54 1019.5
20260906075017 69 282 0.0 8.0 0.00 0.00 0.00 53 1019.5
20260906074505 69 281 0.0 8.0 0.00 0.00 0.00 54 1019.6
20260906074003 69 283 1.0 8.0 0.00 0.00 0.00 54 1019.7
20260906073508 69 282 0.0 1.0 0.00 0.00 0.00 54 1019.6
20260906073013 69 279 0.0 1.0 0.00 0.00 0.00 55 1019.4
20260906072509 69 279 0.0 1.0 0.00 0.00 0.00 56 1019.5
20260906072009 69 282 0.0 1.0 0.00 0.00 0.00 57 1019.3
20260906071517 69 282 0.0 1.0 0.00 0.00 0.00 56 1019.4
20260906071014 69 283 0.0 1.0 0.00 0.00 0.00 55 1019.4
20260906070512 68 270 0.0 0.0 0.00 0.00 0.00 56 1019.2
20260906070023 69 287 0.0 3.0 0.00 0.00 0.00 56 1019.2
20260906065519 69 284 0.0 3.0 0.00 0.00 0.00 56 1019.5
20260906065015 69 281 0.0 2.0 0.00 0.00 0.00 52 1019.5
20260906064527 69 281 0.0 2.0 0.00 0.00 0.00 52 1019.3
20260906064021 70 281 0.0 2.0 0.00 0.00 0.00 51 1019.5
20260906063520 70 270 0.0 1.0 0.00 0.00 0.00 51 1019.7
20260906063007 71 282 0.0 1.0 0.00 0.00 0.00 50 1019.9
20260906062508 71 270 0.0 1.0 0.00 0.00 0.00 49 1019.8
20260906062012 71 279 0.0 1.0 0.00 0.00 0.00 48 1019.6
20260906061514 71 279 0.0 2.0 0.00 0.00 0.00 48 1019.6
20260906061010 72 279 0.0 2.0 0.00 0.00 0.00 48 1019.6
20260906060512 72 279 0.0 2.0 0.00 0.00 0.00 49 1019.7
20260906060026 72 279 0.0 2.0 0.00 0.00 0.00 48 1019.6
20260906055514 72 270 0.0 2.0 0.00 0.00 0.00 48 1019.5
20260906055015 72 289 0.0 2.0 0.00 0.00 0.00 48 1019.5
20260906054541 72 270 0.0 1.0 0.00 0.00 0.00 49 1019.5
20260906054016 73 286 0.0 1.0 0.00 0.00 0.00 50 1019.4
20260906053516 73 270 0.0 1.0 0.00 0.00 0.00 50 1019.6
20260906053031 73 284 0.0 1.0 0.00 0.00 0.00 48 1019.6
20260906052518 73 285 0.0 1.0 0.00 0.00 0.00 46 1019.7
20260906052018 73 285 0.0 1.0 0.00 0.00 0.00 47 1019.6
20260906051509 73 285 0.0 1.0 0.00 0.00 0.00 47 1019.5
20260906051010 73 279 0.0 0.0 0.00 0.00 0.00 47 1019.4
20260906050509 73 279 0.0 1.0 0.00 0.00 0.00 47 1019.3
20260906050016 73 279 0.0 1.0 0.00 0.00 0.00 47 1019.2
20260906045512 73 279 0.0 3.0 0.00 0.00 0.00 46 1018.8
20260906045012 73 279 0.0 3.0 0.00 0.00 0.00 46 1018.6
20260906044521 74 279 1.0 3.0 0.00 0.00 0.00 46 1018.5
20260906044018 74 287 0.0 1.0 0.00 0.00 0.00 45 1018.5
20260906043516 74 287 0.0 1.0 0.00 0.00 0.00 45 1018.5
20260906043032 74 287 0.0 2.0 0.00 0.00 0.00 45 1018.5
20260906042518 74 287 0.0 2.0 0.00 0.00 0.00 44 1018.5
20260906042017 75 285 0.0 2.0 0.00 0.00 0.00 42 1018.4
20260906041534 75 287 0.0 2.0 0.00 0.00 0.00 40 1018.2
20260906041015 76 283 0.0 1.0 0.00 0.00 0.00 42 1018.1
20260906040508 76 287 0.0 1.0 0.00 0.00 0.00 40 1018.0
20260906040026 76 287 0.0 1.0 0.00 0.00 0.00 40 1018.1
20260906035510 77 329 0.0 1.0 0.00 0.00 0.00 40 1018.2
20260906035010 77 330 0.0 1.0 0.00 0.00 0.00 40 1018.3
20260906034520 77 68 0.0 1.0 0.00 0.00 0.00 40 1018.4
20260906034014 78 24 0.0 1.0 0.00 0.00 0.00 39 1018.4
20260906033512 78 283 0.0 1.0 0.00 0.00 0.00 39 1018.4
20260906033039 79 77 0.0 1.0 0.00 0.00 0.00 38 1018.5
20260906032515 79 79 0.0 1.0 0.00 0.00 0.00 36 1018.4
20260906032016 79 77 0.0 1.0 0.00 0.00 0.00 36 1018.2
20260906031529 80 68 0.0 1.0 0.00 0.00 0.00 35 1018.2
20260906031017 80 68 0.0 3.0 0.00 0.00 0.00 35 1018.1
20260906030517 80 299 0.0 3.0 0.00 0.00 0.00 34 1018.1
20260906030034 80 312 0.0 4.0 0.00 0.00 0.00 35 1018.0
20260906025519 80 22 0.0 4.0 0.00 0.00 0.00 35 1018.0
20260906025009 80 17 0.0 3.0 0.00 0.00 0.00 34 1017.9
20260906024514 80 227 0.0 3.0 0.00 0.00 0.00 34 1017.8
20260906024014 80 279 0.0 3.0 0.00 0.00 0.00 34 1017.8
20260906023515 80 326 0.0 1.0 0.00 0.00 0.00 34 1017.7
20260906023023 80 279 0.0 3.0 0.00 0.00 0.00 33 1017.6
20260906022516 80 281 0.0 4.0 0.00 0.00 0.00 33 1017.5
20260906022016 81 231 0.0 11.0 0.00 0.00 0.00 33 1017.5
20260906021528 81 270 2.0 11.0 0.00 0.00 0.00 33 1017.5
20260906021017 81 289 3.0 12.0 0.00 0.00 0.00 33 1017.4
20260906020517 81 233 5.0 12.0 0.00 0.00 0.00 32 1017.2
20260906020034 81 285 2.0 8.0 0.00 0.00 0.00 32 1017.2
20260906015519 81 290 3.0 8.0 0.00 0.00 0.00 33 1017.2
20260906015018 81 295 2.0 9.0 0.00 0.00 0.00 33 1017.2
20260906014535 81 359 2.0 9.0 0.00 0.00 0.00 32 1017.3
20260906014010 81 290 3.0 9.0 0.00 0.00 0.00 32 1017.2
20260906013510 81 289 3.0 10.0 0.00 0.00 0.00 32 1017.2
20260906013016 82 221 3.0 10.0 0.00 0.00 0.00 32 1017.1
20260906012515 82 221 2.0 9.0 0.00 0.00 0.00 32 1017.2
20260906012012 82 27 3.0 9.0 0.00 0.00 0.00 32 1017.3
20260906011528 82 270 4.0 11.0 0.00 0.00 0.00 33 1017.4
20260906011004 82 279 3.0 11.0 0.00 0.00 0.00 33 1017.4
20260906010508 82 288 5.0 16.0 0.00 0.00 0.00 32 1017.3
20260906010006 82 302 6.0 16.0 0.00 0.00 0.00 32 1017.3
20260906005504 83 212 3.0 13.0 0.00 0.00 0.00 32 1017.4
20260906005008 83 280 6.0 15.0 0.00 0.00 0.00 31 1017.4
20260906004511 83 304 6.0 15.0 0.00 0.00 0.00 31 1017.5
20260906004009 84 221 5.0 20.0 0.00 0.00 0.00 31 1017.7
20260906003507 84 281 4.0 20.0 0.00 0.00 0.00 30 1017.7
20260906003007 85 302 6.0 12.0 0.00 0.00 0.00 29 1017.7
20260906002509 86 24 6.0 12.0 0.00 0.00 0.00 29 1017.6
20260906002008 86 275 3.0 10.0 0.00 0.00 0.00 28 1017.5
20260906001510 87 209 3.0 14.0 0.00 0.00 0.00 27 1017.5
20260906001007 87 309 5.0 14.0 0.00 0.00 0.00 26 1017.3
20260906000507 88 262 4.0 13.0 0.00 0.00 0.00 26 1017.2
20260906000011 88 270 6.0 15.0 0.00 0.00 0.00 26 1017.2
20260905235508 89 262 6.0 15.0 0.00 0.00 0.00 25 1017.3
20260905235008 90 248 5.0 10.0 0.00 0.00 0.00 25 1017.2
20260905234512 91 270 1.0 5.0 0.00 0.00 0.00 24 1017.3
20260905234004 91 289 0.0 2.0 0.00 0.00 0.00 24 1017.2
20260905233509 91 295 1.0 3.0 0.00 0.00 0.00 23 1017.1
20260905233009 91 289 1.0 3.0 0.00 0.00 0.00 21 1017.0
20260905232510 91 283 1.0 3.0 0.00 0.00 0.00 22 1017.0
20260905232008 91 294 1.0 3.0 0.00 0.00 0.00 23 1016.8
20260905231518 91 289 1.0 3.0 0.00 0.00 0.00 22 1016.8
20260905231007 91 281 1.0 3.0 0.00 0.00 0.00 23 1016.8
20260905230507 91 280 0.0 2.0 0.00 0.00 0.00 22 1016.8
20260905230012 91 185 0.0 1.0 0.00 0.00 0.00 23 1016.7
20260905225508 91 185 0.0 1.0 0.00 0.00 0.00 22 1016.6
20260905225011 91 71 0.0 1.0 0.00 0.00 0.00 25 1016.6
20260905224520 91 71 0.0 2.0 0.00 0.00 0.00 24 1016.7
20260905224010 91 69 0.0 3.0 0.00 0.00 0.00 25 1016.6
20260905223510 92 80 0.0 3.0 0.00 0.00 0.00 22 1016.6
20260905223010 92 76 0.0 2.0 0.00 0.00 0.00 21 1016.6
20260905222509 92 174 0.0 3.0 0.00 0.00 0.00 22 1016.6
20260905222008 92 111 0.0 3.0 0.00 0.00 0.00 22 1016.5
20260905221513 93 229 1.0 4.0 0.00 0.00 0.00 22 1016.5
20260905221011 93 146 1.0 5.0 0.00 0.00 0.00 21 1016.5
20260905220510 94 75 0.0 5.0 0.00 0.00 0.00 20 1016.5
20260905220015 94 212 0.0 3.0 0.00 0.00 0.00 20 1016.6
20260905215509 94 11 0.0 6.0 0.00 0.00 0.00 21 1016.7
20260905215011 94 88 0.0 8.0 0.00 0.00 0.00 21 1016.8
20260905214514 93 50 2.0 8.0 0.00 0.00 0.00 23 1016.8
20260905214010 94 58 2.0 7.0 0.00 0.00 0.00 21 1016.9
20260905213510 95 221 1.0 6.0 0.00 0.00 0.00 21 1016.8
20260905213017 95 180 0.0 8.0 0.00 0.00 0.00 21 1016.8
20260905212510 94 92 2.0 8.0 0.00 0.00 0.00 22 1017.0
20260905212011 94 58 1.0 10.0 0.00 0.00 0.00 22 1017.3
20260905211533 93 49 3.0 10.0 0.00 0.00 0.00 23 1017.4
20260905211010 92 87 4.0 9.0 0.00 0.00 0.00 24 1017.4
20260905210511 93 121 2.0 6.0 0.00 0.00 0.00 23 1017.4
20260905210020 93 30 0.0 11.0 0.00 0.00 0.00 22 1017.4
20260905205511 93 42 2.0 11.0 0.00 0.00 0.00 22 1017.5
20260905205012 94 69 2.0 8.0 0.00 0.00 0.00 22 1017.5
20260905204515 94 63 0.0 6.0 0.00 0.00 0.00 20 1017.6
20260905204010 94 54 2.0 8.0 0.00 0.00 0.00 21 1017.7
20260905203510 94 63 4.0 9.0 0.00 0.00 0.00 22 1017.7
20260905203014 95 67 4.0 11.0 0.00 0.00 0.00 20 1017.7
20260905202508 96 29 5.0 11.0 0.00 0.00 0.00 19 1017.7
20260905202008 96 67 4.0 9.0 0.00 0.00 0.00 20 1017.7
20260905201517 96 69 2.0 8.0 0.00 0.00 0.00 19 1017.8
20260905201011 96 63 1.0 9.0 0.00 0.00 0.00 19 1017.8
20260905200516 96 26 3.0 9.0 0.00 0.00 0.00 20 1017.8
20260905200022 96 259 2.0 9.0 0.00 0.00 0.00 19 1017.8
20260905195513 96 78 2.0 9.0 0.00 0.00 0.00 20 1017.9
20260905195012 96 67 4.0 8.0 0.00 0.00 0.00 20 1018.0
20260905194519 97 71 4.0 7.0 0.00 0.00 0.00 20 1018.0
20260905194011 96 235 1.0 7.0 0.00 0.00 0.00 20 1018.0
20260905193510 97 55 2.0 7.0 0.00 0.00 0.00 19 1018.1
20260905193017 97 70 1.0 6.0 0.00 0.00 0.00 20 1018.1
20260905192512 97 40 2.0 6.0 0.00 0.00 0.00 20 1018.2
20260905192011 97 83 1.0 7.0 0.00 0.00 0.00 20 1018.2
20260905191518 96 75 0.0 7.0 0.00 0.00 0.00 21 1018.2
20260905191016 96 64 1.0 7.0 0.00 0.00 0.00 21 1018.2
20260905190509 96 8 0.0 5.0 0.00 0.00 0.00 20 1018.2
20260905190019 95 59 0.0 6.0 0.00 0.00 0.00 21 1018.2
20260905185512 95 231 1.0 7.0 0.00 0.00 0.00 22 1018.2
20260905185010 95 73 0.0 7.0 0.00 0.00 0.00 21 1018.4
20260905184528 95 68 2.0 7.0 0.00 0.00 0.00 21 1018.4
20260905184013 95 70 3.0 6.0 0.00 0.00 0.00 22 1018.4
20260905183512 94 339 1.0 5.0 0.00 0.00 0.00 21 1018.5
20260905183017 94 47 0.0 5.0 0.00 0.00 0.00 21 1018.5
20260905182512 94 64 2.0 4.0 0.00 0.00 0.00 23 1018.6
20260905182011 93 56 0.0 5.0 0.00 0.00 0.00 23 1018.6
20260905181519 93 248 1.0 5.0 0.00 0.00 0.00 23 1018.7
20260905181012 93 14 0.0 3.0 0.00 0.00 0.00 22 1018.8
20260905180513 93 223 0.0 2.0 0.00 0.00 0.00 24 1018.8
20260905180019 93 316 0.0 5.0 0.00 0.00 0.00 24 1018.9
20260905175512 92 49 2.0 5.0 0.00 0.00 0.00 25 1019.0
20260905175015 92 31 1.0 4.0 0.00 0.00 0.00 25 1019.0
20260905174524 91 54 2.0 4.0 0.00 0.00 0.00 26 1019.1
20260905174013 90 71 0.0 5.0 0.00 0.00 0.00 26 1019.0
20260905173514 91 255 1.0 5.0 0.00 0.00 0.00 24 1019.0
20260905173021 92 65 1.0 5.0 0.00 0.00 0.00 24 1019.0
20260905172513 92 78 1.0 5.0 0.00 0.00 0.00 24 1019.0
20260905172015 92 325 0.0 4.0 0.00 0.00 0.00 24 1019.1
20260905171521 92 57 1.0 4.0 0.00 0.00 0.00 26 1019.2
20260905171010 91 71 1.0 6.0 0.00 0.00 0.00 26 1019.2
20260905170512 90 30 1.0 6.0 0.00 0.00 0.00 25 1019.2
20260905170025 90 58 2.0 6.0 0.00 0.00 0.00 26 1019.1
20260905165513 89 71 0.0 3.0 0.00 0.00 0.00 28 1019.0
20260905165015 89 112 0.0 4.0 0.00 0.00 0.00 30 1018.9
20260905164526 88 87 1.0 5.0 0.00 0.00 0.00 28 1019.0
20260905164012 88 70 1.0 5.0 0.00 0.00 0.00 28 1018.9
20260905163513 88 57 1.0 4.0 0.00 0.00 0.00 29 1018.9
20260905163026 88 70 1.0 3.0 0.00 0.00 0.00 29 1018.9
20260905162514 87 44 1.0 3.0 0.00 0.00 0.00 30 1018.9
20260905162014 87 82 0.0 5.0 0.00 0.00 0.00 31 1018.9
20260905161524 86 77 0.0 5.0 0.00 0.00 0.00 32 1019.0
20260905161006 85 52 0.0 5.0 0.00 0.00 0.00 33 1019.1
20260905160504 85 68 0.0 5.0 0.00 0.00 0.00 34 1019.1
20260905160007 84 75 1.0 4.0 0.00 0.00 0.00 33 1019.1
20260905155506 83 75 0.0 3.0 0.00 0.00 0.00 35 1019.0
20260905155006 83 356 1.0 5.0 0.00 0.00 0.00 34 1018.9
20260905154511 82 56 2.0 6.0 0.00 0.00 0.00 34 1018.9
20260905154009 81 65 1.0 6.0 0.00 0.00 0.00 35 1018.8
20260905153509 80 73 2.0 9.0 0.00 0.00 0.00 37 1018.8
20260905153019 80 49 4.0 9.0 0.00 0.00 0.00 37 1018.8
20260905152508 79 68 2.0 6.0 0.00 0.00 0.00 40 1018.8
20260905152011 79 78 2.0 5.0 0.00 0.00 0.00 41 1018.7
20260905151519 78 62 2.0 5.0 0.00 0.00 0.00 41 1018.7
20260905151007 78 77 2.0 5.0 0.00 0.00 0.00 42 1018.6
20260905150514 78 56 1.0 4.0 0.00 0.00 0.00 42 1018.6
20260905150012 78 67 1.0 4.0 0.00 0.00 0.00 43 1018.5
20260905145504 77 73 1.0 4.0 0.00 0.00 0.00 42 1018.5
20260905145005 77 85 2.0 4.0 0.00 0.00 0.00 42 1018.5
20260905144521 77 72 0.0 2.0 0.00 0.00 0.00 45 1018.6
20260905144006 76 298 0.0 1.0 0.00 0.00 0.00 44 1018.6
20260905143508 76 275 0.0 1.0 0.00 0.00 0.00 41 1018.7
20260905143013 75 275 0.0 1.0 0.00 0.00 0.00 42 1018.6
20260905142510 74 275 0.0 1.0 0.00 0.00 0.00 42 1018.5
20260905142010 74 275 0.0 0.0 0.00 0.00 0.00 43 1018.5
20260905141513 73 275 0.0 0.0 0.00 0.00 0.00 43 1018.5
20260905141007 72 275 0.0 2.0 0.00 0.00 0.00 43 1018.5
20260905140511 71 275 0.0 3.0 0.00 0.00 0.00 46 1018.4
20260905140017 69 275 0.0 3.0 0.00 0.00 0.00 48 1018.3
20260905135510 69 275 0.0 3.0 0.00 0.00 0.00 50 1018.4
20260905135011 68 279 0.0 2.0 0.00 0.00 0.00 50 1018.4
20260905134517 67 279 0.0 3.0 0.00 0.00 0.00 50 1018.4
20260905134006 66 279 1.0 5.0 0.00 0.00 0.00 53 1018.3
20260905133504 65 279 2.0 5.0 0.00 0.00 0.00 53 1018.3
20260905133010 65 275 1.0 4.0 0.00 0.00 0.00 54 1018.2
20260905132505 64 287 0.0 1.0 0.00 0.00 0.00 58 1018.2
20260905132009 63 287 0.0 1.0 0.00 0.00 0.00 58 1018.2
20260905131520 63 287 0.0 3.0 0.00 0.00 0.00 60 1018.2
20260905131012 63 270 0.0 3.0 0.00 0.00 0.00 55 1018.2
20260905130515 62 270 0.0 3.0 0.00 0.00 0.00 57 1018.2
20260905130017 62 287 0.0 3.0 0.00 0.00 0.00 57 1018.0
20260905125509 62 279 1.0 3.0 0.00 0.00 0.00 56 1018.0
20260905125009 62 275 0.0 1.0 0.00 0.00 0.00 57 1018.0
20260905124516 62 279 0.0 3.0 0.00 0.00 0.00 56 1018.0
20260905124011 62 279 0.0 3.0 0.00 0.00 0.00 55 1017.9
20260905123512 62 279 2.0 3.0 0.00 0.00 0.00 55 1017.9
20260905123020 62 285 0.0 1.0 0.00 0.00 0.00 55 1017.8
20260905122507 62 283 0.0 1.0 0.00 0.00 0.00 55 1017.7
20260905122004 63 283 0.0 0.0 0.00 0.00 0.00 54 1017.7
20260905121510 63 283 0.0 2.0 0.00 0.00 0.00 53 1017.7
20260905121007 63 283 0.0 2.0 0.00 0.00 0.00 53 1017.7
20260905120513 64 285 0.0 2.0 0.00 0.00 0.00 52 1017.7
20260905120018 64 285 0.0 2.0 0.00 0.00 0.00 52 1017.7
20260905115509 64 275 0.0 3.0 0.00 0.00 0.00 52 1017.6
20260905115018 64 275 0.0 4.0 0.00 0.00 0.00 51 1017.6
20260905114518 64 279 0.0 4.0 0.00 0.00 0.00 51 1017.6
20260905114011 64 270 1.0 4.0 0.00 0.00 0.00 51 1017.7
20260905113510 64 287 0.0 3.0 0.00 0.00 0.00 51 1017.7
20260905113018 65 287 0.0 4.0 0.00 0.00 0.00 51 1017.7
20260905112513 65 275 0.0 4.0 0.00 0.00 0.00 51 1017.7
20260905112014 65 275 1.0 3.0 0.00 0.00 0.00 51 1017.7
20260905111507 65 275 0.0 3.0 0.00 0.00 0.00 51 1017.7
20260905111009 65 279 1.0 3.0 0.00 0.00 0.00 51 1017.7
20260905110510 65 270 1.0 4.0 0.00 0.00 0.00 51 1017.7
20260905110009 65 275 1.0 4.0 0.00 0.00 0.00 51 1017.7
20260905105508 64 279 1.0 3.0 0.00 0.00 0.00 51 1017.7
20260905105010 64 275 1.0 3.0 0.00 0.00 0.00 51 1017.8
20260905104518 64 275 1.0 3.0 0.00 0.00 0.00 52 1017.8
20260905104022 64 279 2.0 3.0 0.00 0.00 0.00 52 1017.8
20260905103518 64 275 0.0 4.0 0.00 0.00 0.00 53 1017.7
20260905103024 64 275 2.0 4.0 0.00 0.00 0.00 53 1017.7
20260905102511 64 279 1.0 3.0 0.00 0.00 0.00 53 1017.6
20260905102015 64 280 0.0 2.0 0.00 0.00 0.00 54 1017.7
20260905101530 64 282 0.0 0.0 0.00 0.00 0.00 53 1017.7
20260905101014 64 282 0.0 0.0 0.00 0.00 0.00 53 1017.7
20260905100514 64 282 0.0 2.0 0.00 0.00 0.00 54 1017.6
20260905100012 65 282 0.0 2.0 0.00 0.00 0.00 54 1017.5
20260905095507 65 282 0.0 2.0 0.00 0.00 0.00 53 1017.5
20260905095009 66 282 0.0 1.0 0.00 0.00 0.00 53 1017.4
20260905094519 66 282 0.0 4.0 0.00 0.00 0.00 53 1017.3
20260905094011 67 282 0.0 5.0 0.00 0.00 0.00 52 1017.1
20260905093513 67 270 2.0 5.0 0.00 0.00 0.00 47 1016.8
20260905093025 66 275 2.0 5.0 0.00 0.00 0.00 47 1016.8
20260905092517 66 279 2.0 5.0 0.00 0.00 0.00 47 1016.9
20260905092014 66 279 2.0 5.0 0.00 0.00 0.00 47 1016.9
20260905091526 67 279 0.0 2.0 0.00 0.00 0.00 49 1016.8